Theta_e
327 329 328 327 327 328 328 328 329 330 331 330 330 330 332 332 333 332 332 331 330 329 329 328 327 328 328 326 323 321 320 320 320 320 320 321 321 322 322 323 323 323 322 320 317 315 314 315 316 317 317 317 317 317 318 317 317 317 318 318 319 320 322 326 330 333 335 337 340 342 344 345 345 344
327 328 328 328 327 325 326 327 330 331 332 331 331 330 331 330 330 331 332 332 331 330 330 329 328 328 328 328 326 325 323 323 321 321 321 322 322 323 323 322 322 321 321 320 317 315 315 316 317 317 317 317 318 318 317 318 318 317 317 318 318 319 319 321 323 327 331 334 335 337 340 343 344 345
328 327 326 326 325 325 326 328 331 332 332 331 330 329 329 329 328 328 329 331 331 330 330 330 329 329 328 328 327 327 325 324 322 321 321 322 322 322 321 321 320 319 319 318 316 315 315 316 317 317 317 317 317 318 317 317 318 318 318 318 317 318 318 319 320 322 326 330 333 335 336 338 340 343
329 327 325 324 324 326 328 329 330 331 331 330 329 328 328 329 329 328 327 329 329 329 330 329 328 328 328 327 327 327 325 323 322 322 322 321 320 320 319 318 317 316 316 317 315 315 315 316 317 317 317 317 317 317 317 317 317 317 318 318 318 318 318 318 319 320 322 325 329 333 334 335 337 339
329 326 325 326 326 326 327 328 330 330 330 331 330 330 329 329 330 328 328 329 329 328 329 329 329 328 327 327 327 327 326 324 323 322 321 320 319 319 318 318 318 316 315 315 315 315 316 316 317 317 316 316 316 316 316 316 316 317 317 317 318 318 318 318 318 319 320 322 324 329 332 334 335 336
328 327 326 326 327 327 327 328 329 330 331 331 331 331 331 331 331 330 330 330 329 328 328 328 329 329 328 328 328 327 327 326 323 320 320 321 322 322 320 320 321 318 314 314 315 315 316 317 317 317 316 316 316 316 317 317 317 316 316 317 317 317 318 318 318 318 319 321 322 325 328 332 334 335
328 327 326 325 327 328 328 327 327 327 328 329 329 328 328 329 329 330 330 330 329 328 327 327 328 328 328 327 326 326 327 326 324 321 322 324 325 325 323 321 322 319 315 315 316 316 316 317 317 317 316 317 317 317 317 317 317 317 316 316 317 317 318 318 318 318 318 319 321 323 325 329 332 334
329 328 326 326 328 329 328 325 324 325 326 327 328 327 326 327 327 328 330 329 328 328 328 327 326 326 326 325 325 326 327 327 325 323 324 325 326 326 325 323 324 322 318 316 315 316 316 317 317 317 317 317 317 318 318 318 318 317 317 316 316 317 317 318 318 318 318 319 320 322 323 325 329 332
328 327 326 326 328 329 327 326 326 326 326 326 327 327 327 328 328 329 329 329 330 330 330 328 325 324 323 323 325 327 327 327 326 325 325 325 325 326 325 325 325 324 323 321 319 317 317 317 317 317 317 317 317 317 318 318 318 317 317 316 316 316 317 318 318 318 319 319 319 321 322 324 326 330
328 326 325 325 327 326 326 326 327 327 327 326 327 327 328 329 329 330 329 329 330 332 332 331 329 328 327 325 325 327 327 326 325 324 324 325 325 325 325 325 325 325 325 325 324 322 322 321 319 319 319 319 318 318 318 318 317 317 318 317 315 316 318 318 318 318 319 319 319 319 321 323 325 328
329 329 328 328 328 327 326 326 327 329 329 329 328 329 329 329 331 331 330 330 331 331 332 332 331 331 330 327 326 326 326 326 325 324 325 325 325 325 325 325 325 325 325 325 325 325 324 324 323 323 323 322 321 321 320 319 318 318 317 317 316 316 317 318 318 318 319 319 319 319 320 322 324 326
327 329 330 330 330 330 329 328 329 330 330 329 329 328 329 330 330 330 329 330 331 332 332 331 330 330 330 328 326 326 327 327 326 326 326 325 325 326 326 326 326 326 326 326 325 325 325 324 324 324 324 324 324 323 322 321 321 321 319 318 316 316 317 318 318 319 319 320 319 319 319 321 323 326
326 328 328 328 329 329 329 329 329 329 329 328 327 327 327 328 328 329 329 329 330 331 331 331 330 329 329 328 327 327 328 328 327 327 326 325 325 325 324 325 325 324 324 324 325 325 325 324 324 324 324 324 324 323 324 323 323 323 322 319 317 316 317 318 319 319 319 320 320 320 319 320 322 324
329 330 329 329 328 329 329 329 330 330 329 328 327 326 326 327 327 328 328 328 328 329 330 330 329 328 327 326 326 325 325 326 327 327 327 326 324 323 323 324 324 324 323 323 324 325 325 324 324 323 323 323 324 324 324 324 323 324 322 319 317 317 317 318 319 319 319 320 320 320 319 320 322 324
330 332 332 333 333 333 332 331 330 330 328 328 327 326 325 326 327 328 328 327 326 327 328 328 326 325 324 324 325 326 326 326 327 327 327 326 324 323 323 324 324 324 323 323 324 324 324 323 322 322 322 322 323 323 322 323 323 323 322 319 317 317 318 319 320 320 320 320 320 320 320 320 322 324
333 334 335 335 335 336 335 332 330 329 328 326 325 325 324 325 327 328 327 326 324 323 324 324 324 323 323 323 324 325 325 327 327 326 326 326 324 323 324 324 324 323 322 322 323 322 321 321 321 322 323 322 322 322 321 322 323 322 321 319 317 316 318 319 320 320 320 320 320 320 320 320 321 324
336 336 334 332 331 333 333 331 329 328 327 326 325 324 324 325 327 327 326 324 323 322 322 323 323 323 323 324 323 323 324 326 326 326 325 324 324 324 324 323 322 321 321 321 322 321 321 322 323 323 323 322 322 322 321 322 322 322 320 319 317 317 318 319 320 320 320 321 321 321 321 320 322 324
335 335 334 332 330 331 332 331 330 328 326 326 325 324 325 326 326 326 325 324 324 325 325 324 324 323 324 324 324 324 324 324 325 325 323 322 323 323 322 321 321 321 322 321 322 322 322 322 322 322 321 321 321 321 320 320 322 322 320 318 317 318 319 320 320 321 321 321 321 321 321 321 322 324
333 334 334 334 332 330 330 329 329 327 326 325 324 323 324 324 324 325 325 325 325 325 324 323 323 324 324 324 323 323 323 323 323 323 321 321 322 321 321 321 321 321 321 321 321 322 322 321 321 320 319 320 320 321 321 321 321 320 319 317 317 319 320 320 321 320 321 321 321 321 321 321 322 324
333 334 334 334 332 330 329 328 326 325 324 324 323 323 323 322 323 325 325 325 323 322 321 321 321 321 322 322 322 322 322 322 321 320 320 320 320 320 321 321 320 320 320 319 319 320 320 319 319 319 319 319 319 320 321 321 320 318 318 318 319 320 321 321 321 321 321 321 322 321 321 321 322 324
333 334 333 332 330 329 328 327 325 324 323 323 323 323 323 323 324 325 325 324 323 321 320 320 320 320 321 321 321 321 321 321 320 319 319 319 319 320 320 320 319 319 318 317 317 318 318 318 318 318 318 318 319 320 320 320 318 318 318 319 320 321 321 321 322 322 321 322 322 322 321 321 322 325
333 333 332 330 328 328 327 326 324 323 322 322 322 323 324 324 324 324 324 324 323 322 321 320 320 320 321 321 321 321 321 321 320 318 318 319 319 319 318 318 318 317 317 317 317 317 318 318 318 318 318 319 320 320 319 318 318 318 320 321 321 322 322 322 324 324 323 322 322 322 321 321 322 326
332 332 330 328 326 325 325 324 323 322 322 322 323 323 323 324 324 324 324 323 322 322 322 321 321 321 321 321 320 320 320 320 319 318 318 319 319 318 317 317 317 316 317 317 317 317 317 317 317 317 319 320 320 319 318 318 319 320 320 321 322 322 323 323 324 325 324 323 322 322 322 321 323 327
333 332 330 329 328 326 325 323 322 321 322 322 322 323 323 323 322 321 320 320 320 320 321 321 321 321 320 320 320 320 319 318 318 317 317 317 316 316 316 316 315 316 316 316 316 317 316 313 314 317 319 320 319 319 319 319 320 320 320 321 322 323 324 324 325 326 325 324 323 322 322 321 323 328
332 331 330 330 329 327 325 322 321 321 321 322 322 322 322 321 319 318 318 319 320 320 321 321 320 319 319 319 319 318 317 317 316 315 315 314 314 314 314 314 314 314 313 312 311 312 312 313 316 318 319 319 319 319 320 320 320 320 321 321 323 324 325 326 327 327 327 325 323 322 322 322 324 329
331 330 329 329 328 326 323 321 321 321 321 321 322 321 320 318 317 318 319 320 320 320 320 319 318 318 318 318 318 317 316 316 314 314 313 313 312 311 311 310 309 309 308 306 306 310 314 317 318 319 319 319 320 320 320 320 320 320 321 322 324 325 326 328 329 329 329 327 324 323 322 322 325 330
330 328 328 328 326 323 321 320 321 321 321 321 321 319 318 318 319 319 319 319 319 319 319 318 318 318 318 317 316 315 314 314 313 312 311 310 308 306 305 304 304 304 304 306 310 315 317 318 318 319 319 320 320 319 320 320 320 321 322 323 325 327 328 329 329 330 330 329 326 323 322 323 326 331
328 328 327 325 322 321 320 320 320 320 320 320 318 317 317 318 319 319 318 318 318 318 318 318 317 317 316 315 314 313 312 312 310 308 306 304 303 303 302 302 303 304 307 311 316 317 317 317 319 320 320 320 319 319 320 321 321 321 323 324 327 329 329 330 330 330 331 331 329 325 322 323 327 332
326 326 324 322 320 320 320 320 320 320 320 318 316 316 317 318 318 318 318 318 317 317 317 317 316 315 314 313 312 311 310 308 305 304 304 303 302 303 305 307 307 307 311 316 318 317 316 317 319 320 319 319 320 320 320 321 322 323 324 326 328 329 330 331 331 331 331 331 331 328 323 324 328 333
324 323 322 321 320 319 320 320 320 320 319 316 315 316 317 317 318 318 318 317 317 317 316 314 313 312 311 311 311 310 307 305 305 306 307 305 304 307 310 311 310 310 314 318 318 316 316 317 319 319 319 320 320 321 322 324 325 325 327 329 329 330 331 332 332 331 331 332 332 330 325 324 329 334
323 322 321 320 320 319 320 320 319 319 317 314 315 316 317 317 317 317 317 316 316 315 314 312 311 311 310 311 310 308 307 306 307 307 306 305 307 310 312 312 313 314 318 319 318 316 316 317 318 319 319 320 321 322 324 327 328 329 329 330 330 330 332 332 331 331 332 332 333 332 328 327 331 335
324 323 321 320 320 320 320 320 319 319 317 317 317 317 316 316 316 315 315 315 314 313 312 310 310 310 310 309 308 306 306 307 306 305 304 305 308 311 312 313 315 317 319 319 318 317 316 316 317 318 319 320 322 323 324 327 329 329 329 330 330 330 330 330 330 330 332 333 334 335 333 331 333 335
323 322 321 321 321 321 320 320 319 319 318 318 318 317 315 314 314 313 313 312 312 311 310 309 310 310 308 307 306 306 306 306 305 304 304 305 309 311 313 314 315 317 318 319 319 317 316 316 317 318 319 320 321 323 323 324 325 327 328 329 330 331 331 330 330 331 332 334 335 337 336 334 334 336
321 321 322 322 321 320 320 319 318 318 318 317 318 317 314 313 312 312 311 311 310 310 309 309 309 307 305 305 305 306 306 305 304 304 305 307 310 312 313 313 315 316 317 319 319 318 316 316 317 318 319 319 321 322 323 322 323 324 325 327 329 331 332 332 332 332 334 335 335 337 336 335 336 337
320 321 321 321 320 319 319 318 318 318 317 316 316 316 314 312 311 310 310 310 309 309 309 308 307 304 303 304 305 305 305 304 304 305 306 308 310 312 313 314 315 316 317 318 319 317 316 316 317 317 318 319 320 321 322 322 322 323 324 325 327 329 332 333 332 334 337 336 335 336 337 337 338 338
320 321 320 319 319 319 318 318 318 317 316 315 315 314 313 312 311 309 309 309 309 309 308 305 303 303 304 304 305 304 305 304 305 305 307 308 309 311 313 314 315 317 317 318 318 317 315 315 316 317 318 319 320 320 321 321 322 323 323 324 326 328 331 332 332 334 336 336 335 336 338 338 339 338
319 320 319 319 319 318 318 318 317 316 315 314 313 312 312 311 309 308 309 309 309 309 306 302 302 303 304 303 303 304 304 305 305 305 306 307 308 310 312 314 315 317 317 318 318 316 315 315 316 316 317 319 320 320 320 321 322 322 322 322 325 327 329 331 332 332 335 336 336 337 338 338 338 338
320 319 318 319 318 318 317 317 315 314 313 313 312 311 310 309 308 308 308 309 308 306 303 302 303 303 302 302 303 304 304 304 305 305 306 306 307 309 312 313 314 315 317 319 319 317 316 316 316 316 317 319 319 320 320 320 321 321 321 321 323 325 327 330 332 332 333 336 338 338 338 338 338 339
319 319 318 318 318 317 317 315 313 313 312 311 310 309 308 308 308 308 308 308 306 302 301 302 303 301 300 302 303 304 304 304 305 305 306 306 306 308 311 312 313 314 316 318 319 318 316 315 315 315 316 318 319 319 319 319 319 320 320 321 322 323 325 329 331 332 333 335 337 338 340 340 339 339
318 317 317 317 316 316 315 313 312 311 310 309 308 308 308 307 307 307 307 306 302 298 299 302 302 301 301 303 303 303 304 304 305 305 305 305 305 307 310 311 312 313 315 317 318 318 316 315 315 315 316 317 317 318 319 319 319 319 320 321 321 322 322 326 330 333 334 335 337 339 340 340 339 339
316 316 315 314 314 314 313 311 310 309 308 307 308 308 308 308 308 307 306 302 298 295 298 302 302 301 302 303 303 303 303 304 305 305 304 304 305 307 309 310 312 313 314 315 317 318 317 315 315 315 315 316 316 317 318 319 318 319 319 320 321 321 321 323 327 332 334 335 337 338 340 341 342 341
314 314 314 313 313 312 311 310 308 308 307 306 305 306 307 307 308 307 304 300 297 297 299 302 302 301 302 302 302 302 303 304 304 304 304 305 305 306 308 310 312 313 314 314 316 318 318 316 315 315 315 316 315 316 318 318 318 318 319 319 320 321 322 322 324 329 333 336 336 338 340 341 343 343
312 312 312 312 312 310 309 308 307 307 306 305 305 306 306 306 306 305 303 301 301 301 301 301 300 300 301 302 301 302 303 303 303 303 304 305 305 305 308 310 311 312 313 314 316 318 318 317 315 315 316 316 316 315 317 318 317 317 318 318 319 320 321 322 323 326 332 336 337 338 338 339 341 342
312 312 311 311 310 309 308 307 306 306 306 305 305 306 306 306 305 304 302 301 301 300 299 299 299 299 300 300 300 301 302 301 302 303 305 305 305 305 307 309 311 312 313 314 315 316 317 317 317 316 316 316 316 315 316 317 317 317 317 318 318 318 320 321 322 324 329 334 335 335 336 337 339 340
311 311 310 309 308 308 307 306 305 305 306 305 305 304 305 305 304 302 301 301 300 298 297 298 298 298 298 298 298 300 300 301 302 304 305 305 305 305 307 310 311 311 312 313 314 314 315 317 318 317 316 316 316 315 315 316 317 316 317 317 317 318 319 319 319 321 324 328 330 333 334 336 337 339
Wind_Speed
8 9 9 10 10 10 10 11 11 11 10 10 10 10 10 10 11 13 15 15 13 13 12 13 13 14 15 17 19 20 21 20 20 20 20 20 20 21 21 20 20 20 20 19 17 15 15 16 16 17 18 18 18 19 19 20 21 22 23 25 28 30 33 37 39 40 40 40 40 39 38 38 38 38
8 9 9 10 11 11 12 12 12 11 11 10 11 11 11 12 13 14 16 18 16 13 13 13 13 14 16 17 18 20 21 22 21 20 20 21 20 21 22 22 22 21 21 20 18 16 15 16 16 17 17 18 18 18 19 21 22 23 24 25 27 29 31 33 37 40 41 42 42 42 41 40 39 39
7 8 9 10 11 12 13 13 12 12 12 12 13 13 14 14 15 15 16 19 19 15 14 15 16 17 19 20 20 21 22 22 22 21 21 22 22 23 23 23 22 21 20 19 18 17 16 15 16 16 17 17 17 17 18 19 21 23 25 26 27 29 30 31 34 38 41 43 43 43 43 42 41 41
8 8 10 10 10 11 12 12 12 13 13 14 15 15 15 15 16 16 16 19 22 20 18 19 19 19 21 22 21 21 22 23 23 22 22 22 23 23 23 22 22 21 20 19 19 17 17 16 16 17 18 18 17 17 17 18 20 22 24 27 29 30 31 32 33 35 39 42 44 44 44 44 43 42
9 9 10 11 11 11 12 13 13 13 14 15 15 15 15 15 16 17 18 19 22 23 22 21 21 20 22 23 22 22 23 24 23 22 23 24 23 22 22 22 22 22 21 20 19 18 18 18 17 18 19 20 19 19 19 19 20 21 23 26 29 32 34 34 34 35 37 40 44 45 45 45 44 44
10 11 12 12 12 12 13 13 13 14 14 14 15 15 15 15 16 17 18 18 20 22 23 22 21 21 21 22 22 22 23 23 24 24 24 24 22 20 20 20 20 22 23 21 20 20 20 20 20 20 21 21 21 22 23 23 23 23 24 25 27 30 34 37 36 36 37 38 42 45 46 46 45 45
12 13 14 14 14 14 14 14 14 14 14 14 15 16 16 17 17 17 18 19 20 22 22 21 21 23 23 23 24 23 22 21 23 23 22 21 20 19 21 21 21 22 23 22 22 22 22 22 22 23 23 24 24 25 25 26 26 26 27 28 28 30 33 37 39 39 38 38 40 43 46 47 47 46
14 15 16 16 16 15 15 15 15 16 16 16 16 17 17 18 18 18 18 19 20 21 22 22 22 24 25 26 26 24 22 21 21 21 21 21 20 19 20 21 21 21 23 23 23 24 25 25 25 25 27 28 28 28 27 27 28 29 30 31 32 32 32 35 39 41 40 40 40 42 45 48 48 47
15 16 17 17 16 16 16 16 16 17 17 18 18 18 18 19 19 19 18 19 19 19 21 24 25 24 26 27 27 24 22 21 21 21 21 21 19 18 20 21 21 22 23 23 23 24 25 27 28 29 30 31 31 30 29 30 30 31 32 34 37 37 35 34 37 41 42 41 41 41 43 47 49 49
16 16 17 16 16 16 17 17 17 18 18 18 19 19 19 19 19 20 20 20 19 19 20 23 24 24 24 26 25 23 23 22 22 23 22 20 18 18 20 21 21 22 23 24 24 24 26 29 31 31 31 33 34 33 33 33 33 33 34 36 39 40 38 34 35 39 42 42 42 42 43 46 49 50
16 17 17 16 16 17 17 17 17 18 18 19 19 19 19 19 19 20 21 20 19 20 20 21 22 22 23 25 25 24 23 23 22 22 21 21 20 20 21 21 21 21 22 24 25 26 29 31 30 29 30 31 33 34 35 36 37 37 36 37 41 43 41 37 34 36 40 42 42 42 43 45 48 50
17 17 16 16 16 17 18 17 17 17 18 19 20 21 20 20 20 21 23 21 19 19 20 21 22 23 24 26 25 22 20 21 21 19 19 22 23 22 23 23 23 23 24 25 25 25 28 30 30 30 30 30 31 34 37 39 40 38 35 37 43 47 46 41 36 35 37 40 42 42 43 44 47 50
18 17 17 17 17 18 18 18 19 19 20 21 22 23 22 22 22 21 23 24 21 19 20 21 22 23 24 25 23 21 19 19 20 20 20 23 24 25 26 26 26 26 27 28 27 25 26 30 31 30 31 32 33 35 37 38 37 34 33 38 46 51 49 44 40 36 36 38 41 42 43 44 46 49
17 17 18 19 19 20 19 20 21 22 22 22 23 24 24 24 25 24 24 26 26 23 21 22 23 23 24 25 25 25 23 20 20 20 21 25 28 30 31 30 27 25 28 30 29 26 25 28 32 34 36 38 36 35 37 37 34 34 37 42 48 51 49 44 40 38 37 38 40 42 43 44 45 48
17 17 18 18 19 19 19 20 22 23 23 23 24 25 25 26 27 27 27 28 28 25 23 23 24 25 25 25 25 25 23 20 19 20 21 24 28 30 30 30 27 25 26 29 31 32 31 33 39 43 42 39 35 36 38 37 35 37 41 45 49 51 49 45 40 37 37 39 40 42 44 45 46 47
17 17 17 17 17 18 20 21 22 23 24 24 24 25 26 27 27 27 26 25 24 24 23 24 25 25 24 24 24 24 22 21 21 23 24 26 29 29 27 29 30 29 29 31 35 41 41 38 41 42 38 35 36 38 38 36 37 41 44 47 52 54 52 48 41 37 37 38 41 43 45 46 47 48
18 18 19 19 19 20 22 23 23 23 24 25 25 25 25 25 23 22 22 23 22 22 23 23 24 23 22 23 23 24 23 24 24 24 25 27 29 27 26 29 33 32 30 30 34 39 37 32 33 37 35 35 37 39 39 39 41 45 47 50 54 54 53 50 44 38 37 38 40 43 45 47 47 48
20 20 21 22 22 22 23 22 22 24 24 24 25 25 24 22 22 22 22 23 22 21 20 21 22 22 21 22 23 23 23 24 25 25 28 30 30 29 29 32 32 29 26 26 30 34 32 28 31 37 37 36 38 40 41 40 42 46 49 53 55 53 50 49 45 39 37 38 40 43 45 47 48 48
23 24 25 24 23 23 23 23 23 24 24 25 25 25 23 23 22 22 21 21 21 20 20 21 22 21 20 21 23 24 24 25 27 28 29 30 27 26 28 29 27 25 25 26 30 36 35 31 33 39 38 37 40 41 40 40 43 48 52 55 57 54 49 46 44 40 37 38 41 43 46 48 48 48
25 27 27 24 22 23 23 23 23 23 24 26 26 25 24 23 22 20 20 20 20 20 21 20 19 19 21 23 24 25 25 26 27 28 27 26 24 24 26 28 29 28 28 27 30 38 39 33 34 39 39 39 41 41 40 43 47 52 56 58 55 51 46 42 40 39 37 37 41 43 46 48 48 47
27 27 27 25 23 23 22 22 22 22 23 24 25 24 22 21 20 18 18 19 19 20 21 20 19 19 20 22 24 24 24 24 24 25 26 26 24 25 28 31 32 30 30 28 29 36 39 36 36 40 41 40 42 42 43 47 53 55 55 52 47 43 40 36 34 36 36 37 40 42 45 48 48 47
27 27 26 24 23 21 20 21 21 22 22 23 23 22 19 18 19 17 15 14 16 18 20 21 22 21 20 22 23 23 23 22 21 24 25 23 22 26 30 33 33 32 31 29 28 32 37 37 37 39 41 41 39 41 47 54 56 55 49 43 40 40 39 35 32 32 34 37 39 40 45 48 47 46
26 25 24 22 20 20 21 22 22 23 23 23 22 20 19 18 17 16 14 12 13 16 18 19 20 18 18 19 20 20 21 21 22 24 25 22 23 28 32 33 33 34 32 28 27 32 36 39 38 37 39 42 44 47 53 54 49 49 49 45 42 41 39 37 34 31 32 37 39 40 44 47 47 47
22 20 20 19 16 17 19 20 21 22 22 22 21 20 20 19 18 17 16 16 17 18 17 16 16 16 16 17 18 19 20 21 21 22 23 23 24 27 30 30 30 33 34 31 29 33 38 41 41 36 34 40 47 53 58 56 49 46 48 47 42 40 38 36 33 31 31 34 39 41 43 46 48 48
18 16 16 16 15 17 19 20 20 21 21 21 20 20 20 20 20 20 19 18 18 16 13 13 15 16 17 18 19 19 19 20 20 20 21 22 24 25 28 30 32 35 39 38 35 35 37 39 39 36 36 40 48 54 59 60 54 46 43 42 40 38 36 33 30 29 29 32 38 42 44 46 48 49
15 15 15 15 17 19 20 20 20 20 20 20 19 19 19 19 19 18 18 17 15 13 11 12 15 16 17 19 20 19 19 18 19 20 23 26 28 30 31 32 33 37 40 39 34 31 33 34 35 38 42 46 49 54 56 56 52 47 42 39 37 34 32 30 29 27 26 28 36 42 44 45 48 49
15 15 14 16 19 20 20 19 19 19 19 18 18 18 17 16 16 16 16 15 13 12 11 12 14 16 18 19 19 19 19 20 23 27 31 33 33 33 32 31 32 34 36 33 28 26 30 33 34 38 43 47 50 53 55 54 51 48 44 39 35 32 29 27 28 28 25 25 31 38 42 45 48 48
15 15 16 18 20 20 20 20 19 18 17 17 16 15 14 14 15 15 14 11 10 10 11 13 16 18 19 19 19 20 23 27 31 33 33 32 31 30 31 31 30 30 30 27 25 26 30 33 35 38 42 46 50 52 53 53 51 47 43 39 34 29 26 25 26 28 26 24 26 33 40 47 49 48
17 18 19 21 21 20 20 19 18 17 16 15 15 14 14 14 13 12 11 10 10 11 12 15 17 18 18 18 21 26 30 32 31 29 28 29 29 29 29 29 28 27 26 24 23 26 30 31 33 38 41 44 48 49 50 51 49 45 40 36 32 26 23 22 24 26 27 27 28 31 39 47 50 49
19 19 20 20 19 19 19 17 16 15 14 14 14 14 14 12 9 8 9 9 11 12 15 16 17 17 19 22 26 29 30 28 25 23 24 27 28 27 25 25 26 25 23 22 22 26 31 31 32 38 44 45 46 46 45 43 42 39 34 30 28 24 19 18 21 25 27 29 30 30 36 45 48 47
18 19 20 19 18 19 19 16 15 14 14 13 12 11 11 10 9 9 9 11 14 16 18 18 18 19 23 26 27 26 23 22 21 21 23 25 26 24 23 24 25 24 21 20 21 28 33 33 34 40 44 45 45 42 36 30 28 28 27 25 24 21 16 14 19 24 27 29 30 29 33 41 45 46
13 14 15 14 13 14 14 12 11 11 11 10 9 9 10 11 12 13 13 14 16 17 17 18 20 23 25 25 23 21 19 20 21 21 22 24 24 22 21 22 24 23 21 22 25 30 34 35 37 40 41 41 40 36 29 23 19 20 22 23 21 19 17 18 20 22 25 28 28 27 31 39 43 46
12 10 10 9 9 10 10 10 10 10 10 10 10 11 12 11 10 11 12 12 12 14 17 20 22 22 22 21 19 19 18 20 20 21 22 23 22 21 21 22 23 22 23 27 30 33 35 36 38 40 40 38 34 30 27 26 22 20 22 22 20 18 17 17 20 22 25 30 31 29 32 37 39 43
12 10 10 11 12 11 11 12 11 11 11 11 10 11 12 11 9 10 10 10 10 13 17 20 19 19 19 18 18 18 18 20 21 21 21 21 20 20 21 22 23 21 22 26 29 31 35 36 37 40 41 39 34 29 27 27 26 25 25 22 19 18 17 16 17 20 23 30 33 33 34 33 32 37
11 10 11 12 12 12 12 12 12 11 10 9 8 9 9 9 9 9 9 10 12 15 17 16 16 16 16 16 17 17 18 20 20 20 19 19 19 20 20 21 23 22 22 24 26 29 33 35 37 41 44 44 41 35 30 28 28 28 28 26 21 18 16 15 15 14 16 23 27 30 30 29 28 32
8 9 11 11 11 12 12 12 12 10 8 8 8 8 8 8 8 8 9 12 16 17 16 14 14 14 14 15 17 17 18 19 19 19 19 18 19 20 19 20 23 24 24 25 26 27 31 33 35 39 42 43 42 40 34 28 26 26 28 27 25 21 15 13 14 13 15 21 25 26 25 26 27 27
8 9 10 10 11 12 11 11 11 9 8 8 8 7 8 8 8 10 13 16 16 16 15 13 12 12 14 15 16 17 17 18 18 18 18 18 19 20 20 21 24 27 28 28 26 24 27 30 31 35 38 39 40 41 37 29 24 25 27 27 26 24 18 13 14 15 17 22 27 31 29 27 28 27
9 10 11 11 11 12 11 11 10 8 8 8 8 8 8 8 8 11 14 14 13 12 12 11 11 12 13 14 15 16 17 17 17 17 17 17 18 20 20 21 25 27 28 28 26 23 25 26 28 31 34 34 36 39 38 32 28 26 27 26 26 24 20 15 13 16 20 21 22 28 29 24 25 27
9 10 11 12 12 11 11 11 10 8 8 8 7 7 7 7 8 9 10 10 11 11 10 9 10 12 13 13 14 15 16 17 17 17 17 17 18 20 20 21 25 27 28 29 26 23 23 24 26 28 30 31 31 33 33 31 29 27 24 23 23 24 21 17 13 15 21 20 16 20 25 23 23 24
8 10 10 10 11 11 11 11 10 8 8 9 9 9 9 8 8 8 9 10 12 11 9 9 10 11 12 13 14 15 16 16 16 17 17 18 18 19 20 22 24 24 25 28 27 22 21 23 25 26 27 30 30 29 29 29 28 27 24 20 19 21 22 19 15 13 16 16 15 18 21 23 25 24
8 8 7 7 8 10 10 10 9 8 8 9 10 10 10 10 9 10 11 11 11 9 8 8 10 11 11 12 14 15 16 16 16 17 18 18 18 19 20 21 22 22 22 25 26 22 19 21 23 23 24 29 31 31 31 31 29 28 25 21 17 18 20 21 17 12 11 15 20 23 20 19 22 23
7 6 6 6 8 9 9 9 8 7 7 7 7 8 9 9 11 12 11 10 9 8 8 8 9 10 11 12 13 14 15 16 17 18 18 18 18 19 20 20 20 21 22 25 26 22 17 17 21 22 23 27 32 32 31 29 28 26 25 23 20 17 17 20 19 12 9 12 16 23 23 20 20 22
6 5 6 8 8 8 9 9 8 7 6 7 7 8 8 7 9 9 8 8 8 8 8 8 9 10 11 12 13 14 14 15 17 18 18 18 18 19 19 19 21 22 23 24 25 22 17 15 18 21 23 26 29 31 30 27 26 27 25 23 22 20 16 17 20 14 6 6 10 15 17 17 20 21
5 5 6 8 8 8 8 9 8 8 8 8 9 9 9 8 9 9 8 8 8 8 8 9 9 10 10 12 13 13 14 15 17 17 18 18 17 18 18 19 20 21 22 24 25 24 21 17 16 18 22 24 25 28 30 28 26 27 26 23 23 24 20 18 21 19 8 2 5 6 7 8 14 19
4 4 5 7 7 8 8 8 8 9 11 11 11 10 10 10 9 8 7 8 9 8 8 9 9 10 11 11 12 13 15 16 17 17 17 17 17 17 17 18 19 21 22 23 24 24 24 21 17 15 17 20 22 25 27 27 27 29 30 27 27 27 25 23 23 24 20 14 9 3 3 5 8 13
Wind_Direction
276 276 279 282 280 281 282 280 279 279 279 282 285 287 283 280 286 291 293 292 291 291 288 287 289 284 281 290 301 307 307 304 303 302 297 292 289 288 289 287 285 285 284 283 282 285 293 301 303 304 303 302 299 295 291 286 280 275 271 267 265 262 257 254 253 253 253 253 252 251 250 250 249 248
274 276 278 281 283 284 281 279 279 278 278 281 283 285 282 280 282 285 289 290 287 282 281 282 285 283 282 287 295 299 300 301 303 302 296 292 289 287 288 288 287 285 281 279 278 281 290 297 301 303 304 303 302 299 296 293 288 283 278 272 268 266 263 258 254 251 251 251 252 252 251 250 249 249
272 277 279 279 279 278 278 278 279 278 277 279 282 284 283 281 282 283 284 286 286 283 281 283 284 282 285 290 293 293 296 300 302 301 296 292 290 289 289 287 285 282 278 276 275 277 284 292 296 300 302 302 303 303 303 301 297 292 287 281 275 270 266 262 259 254 250 249 250 250 250 250 249 248
271 280 281 278 276 274 275 279 280 278 278 279 281 282 282 280 279 281 280 280 285 287 286 288 290 288 289 294 295 295 300 304 304 302 299 296 294 295 295 292 288 283 277 274 273 273 279 287 291 294 297 298 301 304 305 305 304 302 298 292 285 278 271 266 261 258 254 250 247 248 249 249 249 247
276 284 283 282 280 277 277 277 277 278 279 281 282 281 281 279 278 280 280 279 283 288 290 291 292 292 293 294 295 294 297 302 304 303 300 298 296 295 296 296 293 288 283 278 274 273 278 284 287 289 292 294 296 300 304 305 306 306 304 300 294 286 279 272 265 260 257 253 249 246 246 248 248 247
283 285 284 283 282 280 279 278 277 279 279 279 281 281 280 279 278 277 277 278 283 288 291 293 293 294 294 293 292 292 292 295 299 300 299 298 295 291 291 293 289 285 284 281 275 275 278 282 285 287 290 292 294 297 301 305 308 307 306 305 301 293 285 278 271 264 258 255 252 247 245 245 246 246
282 284 284 283 281 278 279 280 282 283 282 281 283 285 285 283 282 279 275 276 279 283 286 288 291 294 294 293 293 293 291 291 295 297 297 296 292 288 288 288 284 281 281 279 275 275 278 281 283 286 289 291 293 294 297 302 307 308 308 307 305 301 290 281 275 269 262 256 253 249 245 243 244 245
282 283 282 281 278 275 278 283 286 287 287 287 286 288 288 286 285 282 277 276 277 279 282 284 289 292 294 295 297 297 294 292 295 298 296 294 292 289 288 287 284 283 282 279 274 274 277 279 282 285 288 290 290 291 295 300 304 308 309 309 307 305 297 284 275 271 266 259 254 251 247 242 241 242
281 282 280 279 276 274 277 282 285 287 290 292 290 288 287 285 285 283 280 277 273 272 276 283 288 290 292 295 295 294 294 292 293 296 295 293 293 292 291 289 289 290 290 287 281 278 280 284 286 287 288 290 292 294 297 298 303 308 310 311 310 308 303 290 276 270 267 262 256 252 248 244 240 239
278 279 278 277 276 277 279 282 285 288 291 292 290 288 286 285 285 283 282 279 275 271 272 279 286 288 290 294 292 291 292 290 293 297 295 292 289 285 286 288 288 289 291 291 289 289 291 293 293 292 291 293 295 298 300 300 303 310 311 310 311 311 306 295 279 268 266 264 258 253 250 245 240 238
271 271 272 274 275 277 280 282 284 286 289 290 290 289 288 287 285 284 284 281 277 276 274 276 281 282 285 290 290 289 288 288 293 298 296 293 290 286 285 285 285 287 287 288 290 292 296 298 297 296 296 297 296 297 301 302 302 306 310 310 312 313 309 299 284 269 263 263 260 254 250 247 242 237
267 266 266 269 271 273 276 279 280 282 284 287 289 289 289 288 287 287 288 287 280 277 277 277 279 281 285 290 292 290 287 286 290 293 292 292 292 292 291 290 290 291 289 288 289 290 292 293 293 294 293 292 294 295 298 300 300 301 306 310 313 314 310 302 289 272 261 260 260 255 250 248 244 238
269 267 267 270 274 276 278 280 283 283 284 285 286 288 289 288 288 287 288 288 285 280 279 279 279 282 286 291 292 289 285 285 289 293 294 293 292 294 295 293 292 292 292 292 290 286 287 289 287 287 287 288 292 292 290 292 294 292 295 304 310 311 308 302 292 276 262 257 257 254 249 247 245 239
267 266 269 275 280 283 284 284 285 285 285 285 285 286 287 287 286 285 286 288 289 285 281 281 281 284 288 290 291 291 290 290 293 297 296 294 296 299 299 295 293 293 294 294 291 285 283 284 284 285 289 290 290 288 286 286 284 279 285 299 308 309 305 300 291 278 263 256 253 251 247 245 244 239
268 268 271 274 277 280 283 285 286 286 285 285 285 286 287 285 283 284 285 287 290 288 284 282 283 286 288 289 289 293 296 295 295 298 296 295 298 300 299 297 295 294 294 293 291 287 285 286 288 291 293 293 288 286 288 287 281 278 285 298 306 307 302 297 289 276 263 256 252 248 245 243 241 238
268 270 270 269 270 270 274 280 286 287 287 287 287 287 287 286 284 283 284 285 287 287 286 285 286 289 291 289 288 290 293 295 296 296 295 296 299 299 295 293 293 293 293 292 290 290 291 292 292 291 292 291 288 288 289 286 282 284 289 296 303 304 299 295 287 273 261 256 252 247 243 241 240 237
266 269 271 273 272 270 275 282 287 286 286 288 288 288 289 289 288 287 287 288 287 286 287 287 289 293 293 291 290 288 289 293 295 294 295 298 299 296 291 291 292 292 291 291 290 290 291 291 290 290 291 290 288 290 291 286 283 285 290 297 302 301 295 291 286 273 260 254 251 247 242 239 238 236
266 271 275 277 276 275 279 284 286 285 285 287 288 288 289 289 290 292 293 293 292 290 290 291 295 298 296 291 290 290 291 293 293 293 296 297 295 292 291 292 292 291 293 298 296 290 288 291 291 290 292 292 288 288 290 286 282 285 291 297 300 297 291 286 282 273 262 253 248 245 241 238 236 234
268 271 274 277 277 278 279 279 280 282 283 284 285 285 286 287 289 290 290 288 287 287 288 290 292 292 290 287 287 290 292 292 292 293 294 293 291 291 293 293 292 292 296 299 294 285 285 292 293 291 293 293 290 289 288 283 283 288 295 299 299 295 288 282 277 272 262 251 246 243 239 236 235 232
269 271 275 278 279 280 281 280 281 282 282 282 282 282 284 287 289 289 288 286 286 287 288 288 286 282 283 284 285 288 290 291 293 293 292 291 293 293 292 291 292 292 293 292 287 284 286 292 294 293 293 293 291 290 285 285 291 297 299 299 297 291 286 280 273 267 259 248 243 241 237 235 233 231
269 273 277 279 280 280 280 280 282 283 282 280 280 283 286 288 289 291 291 292 294 293 289 288 289 287 285 284 284 286 287 288 291 294 294 295 296 294 291 291 292 293 292 291 288 286 288 293 296 295 294 294 292 289 287 293 299 301 300 299 297 292 288 282 271 262 254 244 239 237 234 233 231 229
271 276 280 279 278 277 275 275 279 282 281 280 281 284 287 288 290 292 294 294 294 293 290 292 296 296 292 291 292 292 290 288 292 296 299 298 294 291 291 292 294 294 292 290 290 288 290 295 298 297 297 296 292 290 295 300 302 301 299 298 295 291 288 282 273 262 251 241 236 234 231 230 228 226
275 279 281 279 276 272 271 273 276 278 279 280 283 285 287 287 288 290 291 290 289 291 292 295 298 299 298 299 300 299 299 302 304 304 304 300 293 290 291 292 294 294 291 291 293 292 292 296 298 298 298 297 297 299 302 302 300 299 299 296 290 287 284 278 271 262 250 240 234 230 228 227 225 223
275 274 277 279 274 270 273 276 276 276 278 281 284 285 286 286 287 288 289 289 290 292 294 297 300 302 302 301 299 298 300 302 300 297 295 292 289 289 291 292 292 291 289 291 294 292 293 296 298 299 297 295 298 303 304 301 297 296 297 295 289 285 283 278 267 256 247 239 232 228 226 224 222 221
268 264 270 273 269 270 276 279 280 280 281 282 283 283 284 286 287 287 287 288 291 293 296 300 302 301 299 298 296 295 293 292 290 290 289 288 288 288 289 291 291 288 288 292 294 293 294 299 301 302 299 297 299 303 303 301 299 297 296 293 288 283 279 273 262 253 246 239 232 227 224 222 219 218
264 263 266 267 268 274 280 282 284 284 282 281 282 283 284 285 284 284 284 286 291 294 295 297 297 296 297 297 296 294 293 293 293 293 293 293 292 290 290 290 290 290 293 298 300 300 300 302 304 304 304 303 303 303 303 301 300 300 298 293 287 283 276 264 253 249 246 239 233 228 224 220 217 216
265 264 262 264 272 282 287 285 284 283 281 281 282 284 282 279 276 279 282 286 291 292 293 296 297 297 298 297 296 296 298 299 299 299 300 299 298 298 298 299 297 296 298 303 308 311 310 308 306 306 306 304 302 301 302 301 299 299 297 292 286 282 274 257 244 243 244 238 234 230 225 219 216 214
257 256 261 271 280 287 288 285 283 281 280 281 282 281 276 272 274 280 284 288 290 291 296 299 299 298 297 296 297 300 303 304 305 306 307 306 306 307 308 309 306 302 302 307 313 318 318 314 308 306 306 304 302 302 302 300 297 295 292 289 286 278 267 253 242 241 239 233 231 229 222 215 213 212
254 259 267 276 282 282 281 281 280 278 278 278 276 271 267 270 279 285 287 291 292 292 296 297 297 298 298 298 300 304 308 310 312 313 313 312 313 314 313 311 307 304 306 311 315 321 325 320 313 311 313 312 309 306 302 298 295 292 287 285 283 273 259 248 243 241 236 228 227 229 221 214 211 210
260 267 271 274 277 277 276 276 276 277 277 272 268 268 269 273 281 284 284 288 291 294 298 299 298 299 300 303 306 309 312 314 315 313 313 314 316 316 313 309 305 306 312 313 316 327 331 327 322 322 323 322 318 312 306 299 293 289 285 281 279 271 255 242 241 244 237 224 220 224 221 213 211 211
268 269 270 271 272 272 272 271 270 273 273 268 267 272 274 273 276 278 279 287 294 299 303 303 302 304 307 310 312 312 311 311 311 312 313 316 317 316 313 309 307 311 315 312 317 330 333 331 333 334 331 329 325 320 314 306 295 290 288 284 277 271 261 251 250 249 238 222 214 216 217 212 211 212
263 267 274 278 276 275 274 270 267 268 268 265 265 270 272 275 283 289 292 294 297 301 306 308 309 312 314 313 311 309 308 307 311 316 318 320 320 316 313 312 312 314 318 317 321 330 332 335 339 340 339 337 329 322 324 326 315 304 303 298 288 282 276 267 262 255 239 221 208 206 210 211 211 211
245 258 273 273 267 268 268 265 262 260 264 267 270 275 282 285 286 290 294 295 293 296 306 313 316 315 313 310 308 307 307 309 314 319 322 324 323 318 314 314 313 316 322 324 326 330 332 336 340 342 346 347 338 331 340 347 340 329 323 316 307 299 288 272 267 262 244 223 209 203 207 211 212 213
246 249 257 257 257 258 258 258 258 256 261 266 263 270 285 289 281 280 288 289 287 296 308 314 315 312 308 306 307 307 307 310 316 321 323 323 321 318 317 316 316 318 322 325 328 331 332 335 340 343 348 354 353 349 351 351 349 345 340 336 326 310 299 290 281 263 235 215 206 203 206 208 209 212
250 247 254 258 259 256 253 255 257 256 259 261 254 259 275 282 280 284 288 286 291 304 312 312 309 308 306 305 306 306 308 313 318 320 321 321 320 320 319 318 321 323 323 325 331 335 334 337 342 346 350 356 358 354 351 351 351 348 344 345 343 326 305 297 290 262 222 208 205 202 203 205 207 211
240 245 257 258 255 254 255 257 258 254 254 259 261 265 269 270 274 277 279 286 298 309 313 308 306 307 305 304 306 308 310 314 317 318 321 322 323 322 320 320 326 332 334 333 335 338 339 342 347 349 351 353 353 349 347 351 354 350 345 346 347 339 320 297 287 265 229 218 211 205 205 207 208 211
233 247 256 255 254 257 259 260 257 254 256 260 263 267 268 270 272 273 281 294 306 311 312 311 310 308 304 305 309 310 312 315 316 318 321 323 324 324 323 323 329 338 343 341 339 342 346 348 351 353 352 350 348 345 345 350 354 352 349 348 345 341 332 307 284 262 240 229 220 213 214 216 213 213
237 255 257 256 258 258 260 263 259 254 259 263 263 264 267 270 274 280 291 303 308 305 306 308 305 302 305 310 312 313 315 318 318 319 322 323 325 326 324 323 329 339 346 346 343 346 350 351 354 358 356 350 346 343 343 348 353 351 348 348 347 342 334 319 290 258 251 255 237 212 207 210 213 215
241 255 255 255 260 262 263 265 260 255 260 262 259 262 267 272 279 286 296 303 299 298 303 303 300 305 312 315 315 314 316 318 319 321 323 323 325 325 323 324 329 336 344 348 346 346 349 352 356 360 359 354 350 346 345 348 351 349 348 352 354 351 344 334 308 264 255 263 246 207 199 203 209 215
250 255 252 252 259 263 263 261 257 255 258 256 254 256 259 265 278 288 292 294 294 299 305 303 304 312 316 316 317 317 318 319 320 321 322 323 325 325 325 327 331 332 335 342 348 348 348 354 358 359 359 359 358 356 355 355 353 351 352 357 2 3 359 349 328 287 261 251 235 219 210 204 203 211
246 250 251 254 261 262 259 256 254 253 254 256 261 264 263 265 277 289 294 293 292 297 305 305 308 316 318 317 320 320 320 321 322 322 324 325 325 327 328 329 331 329 327 335 345 348 346 352 359 1 3 5 5 3 2 1 356 353 354 358 3 10 12 6 352 320 280 258 243 232 219 200 195 203
246 245 253 263 264 257 250 247 246 247 253 257 260 263 267 275 287 297 302 299 294 301 312 309 310 317 318 317 321 322 322 323 322 322 326 328 326 329 331 329 329 330 329 334 344 349 345 350 359 2 3 7 9 8 6 1 356 355 359 2 3 9 20 23 16 356 307 272 240 220 207 193 188 195
257 257 264 265 258 247 244 245 244 243 249 253 255 260 267 279 288 293 296 292 290 300 306 303 308 318 319 319 324 326 323 323 323 324 328 329 328 328 330 328 328 333 337 343 351 356 353 349 353 357 0 5 9 11 9 5 1 1 5 8 9 10 19 34 37 28 341 255 211 200 198 188 181 186
261 261 261 258 249 243 245 248 246 246 251 258 264 269 273 277 279 279 281 280 283 291 299 305 314 320 319 320 325 326 324 327 330 329 327 328 329 330 330 328 329 335 343 350 355 358 356 350 345 348 354 2 10 14 14 12 10 10 10 13 18 21 23 32 42 45 46 159 187 204 220 192 173 179
266 264 255 246 241 243 248 250 254 260 265 268 270 270 270 271 272 274 276 278 283 290 300 309 314 315 319 324 327 327 329 333 333 329 325 328 332 332 331 331 333 336 343 350 353 352 351 350 349 345 347 358 11 18 19 18 20 21 20 21 25 30 30 30 36 47 60 72 82 112 220 212 187 184